DW8587 Weather Reports


Display with metric or nautical units.
time (UTC)temp
F
wind
direction
speed
MPH
gust
MPH
rain 1hr
in
rain 24hr
in
rain mn
in
humidity
%
barometer
mb
20260901023102 66 5 2.0 4.0 0.00 0.00 0.00 75 1013.9
20260901021554 67 28 2.0 4.0 0.00 0.00 0.00 75 1014.0
20260901020055 68 144 0.0 0.0 0.00 0.00 0.00 75 1014.1
20260901014549 68 144 0.0 0.0 0.00 0.00 0.00 75 1014.0
20260901013056 69 147 0.0 0.0 0.00 0.00 0.00 75 1014.1
20260901011548 69 147 0.0 0.0 0.00 0.00 0.00 74 1014.1
20260901010100 69 147 0.0 3.0 0.00 0.00 0.00 75 1014.0
20260901004542 71 147 2.0 4.0 0.00 0.00 0.00 71 1013.8
20260901003040 72 332 2.0 5.0 0.00 0.00 0.00 68 1013.6
20260901001539 72 360 3.0 5.0 0.00 0.00 0.00 70 1013.5
20260901000040 72 9 2.0 4.0 0.00 0.00 0.00 74 1013.5
20260831234536 72 337 3.0 6.0 0.00 0.00 0.00 76 1013.5
20260831233042 72 30 4.0 7.0 0.00 0.00 0.00 77 1013.5
20260831231537 72 335 2.0 4.0 0.00 0.00 0.00 78 1013.5
20260831230032 72 333 1.0 5.0 0.00 0.00 0.00 79 1013.4
20260831224531 72 336 3.0 5.0 0.00 0.00 0.00 79 1013.3
20260831223030 72 350 1.0 5.0 0.00 0.00 0.00 80 1013.3
20260831221534 73 37 2.0 4.0 0.00 0.00 0.00 79 1013.2
20260831220026 74 40 4.0 5.0 0.00 0.00 0.00 77 1013.3
20260831214524 74 39 1.0 3.0 0.00 0.00 0.00 76 1013.3
20260831213024 74 39 2.0 5.0 0.00 0.00 0.00 76 1013.1
20260831211523 75 42 4.0 6.0 0.00 0.00 0.00 75 1013.0
20260831210022 75 38 2.0 4.0 0.00 0.00 0.00 75 1012.9
20260831204522 75 40 2.0 5.0 0.00 0.00 0.00 75 1012.8
20260831203022 75 19 3.0 5.0 0.00 0.00 0.00 75 1012.8
20260831201524 75 41 3.0 5.0 0.00 0.00 0.00 75 1012.7
20260831200020 76 348 2.0 4.0 0.00 0.00 0.00 75 1012.6
20260831194521 76 26 3.0 6.0 0.00 0.00 0.00 74 1012.4
20260831193031 76 37 4.0 6.0 0.00 0.00 0.00 73 1012.3
20260831191519 77 38 2.0 4.0 0.00 0.00 0.00 72 1012.3
20260831190020 78 33 3.0 5.0 0.00 0.00 0.00 70 1012.1
20260831184519 80 333 0.0 3.0 0.00 0.00 0.00 67 1011.9
20260831183019 81 333 0.0 0.0 0.00 0.00 0.00 64 1011.7
20260831181518 82 333 1.0 2.0 0.00 0.00 0.00 62 1011.6
20260831180021 84 333 0.0 2.0 0.00 0.00 0.00 59 1011.5
20260831174520 85 333 2.0 6.0 0.00 0.00 0.00 56 1011.4
20260831173018 85 310 2.0 4.0 0.00 0.00 0.00 55 1011.4
20260831171519 86 32 1.0 4.0 0.00 0.00 0.00 53 1011.4
20260831170033 86 209 0.0 2.0 0.00 0.00 0.00 53 1011.4
20260831164520 87 280 2.0 5.0 0.00 0.00 0.00 52 1011.4
20260831163016 88 252 1.0 4.0 0.00 0.00 0.00 51 1011.5
20260831161512 88 251 1.0 5.0 0.00 0.00 0.00 52 1011.6
20260831160014 88 236 2.0 5.0 0.00 0.00 0.00 51 1011.7
20260831154526 88 224 2.0 5.0 0.00 0.00 0.00 51 1011.7
20260831153010 88 297 2.0 8.0 0.00 0.00 0.00 52 1011.8
20260831151509 88 296 3.0 10.0 0.00 0.00 0.00 52 1011.8
20260831150007 88 252 3.0 9.0 0.00 0.00 0.00 51 1012.0
20260831144506 89 196 6.0 10.0 0.00 0.00 0.00 51 1011.9
20260831143005 88 240 2.0 9.0 0.00 0.00 0.00 53 1012.0
20260831141503 88 242 5.0 8.0 0.00 0.00 0.00 53 1012.0
20260831140003 87 160 1.0 5.0 0.00 0.00 0.00 53 1012.0
20260831134600 87 167 4.0 9.0 0.00 0.00 0.00 52 1012.0
20260831133104 87 207 3.0 9.0 0.00 0.00 0.00 52 1012.2
20260831131601 86 82 2.0 5.0 0.00 0.00 0.00 51 1012.2
20260831130101 86 222 5.0 11.0 0.00 0.00 0.00 53 1012.3
20260831124605 86 199 2.0 7.0 0.00 0.00 0.00 51 1012.5
20260831123054 87 175 6.0 9.0 0.00 0.00 0.00 51 1012.6
20260831121554 86 304 2.0 8.0 0.00 0.00 0.00 52 1012.7
20260831120055 86 210 3.0 8.0 0.00 0.00 0.00 52 1012.7
20260831114550 87 241 2.0 5.0 0.00 0.00 0.00 53 1012.9
20260831113048 87 319 1.0 4.0 0.00 0.00 0.00 54 1013.0
20260831111544 86 74 0.0 6.0 0.00 0.00 0.00 55 1013.1
20260831110045 85 88 2.0 10.0 0.00 0.00 0.00 55 1013.3
20260831104558 85 224 3.0 7.0 0.00 0.00 0.00 55 1013.3
20260831103037 84 355 3.0 10.0 0.00 0.00 0.00 56 1013.4
20260831101534 84 269 2.0 8.0 0.00 0.00 0.00 54 1013.4
20260831100036 84 242 2.0 4.0 0.00 0.00 0.00 54 1013.6
20260831094537 84 261 3.0 7.0 0.00 0.00 0.00 55 1013.7
20260831093031 83 332 2.0 7.0 0.00 0.00 0.00 56 1013.8
20260831091522 82 193 2.0 7.0 0.00 0.00 0.00 59 1013.8
20260831090020 83 98 0.0 4.0 0.00 0.00 0.00 59 1013.8
20260831084527 82 28 3.0 6.0 0.00 0.00 0.00 59 1013.7
20260831083024 81 114 2.0 4.0 0.00 0.00 0.00 62 1013.7
20260831081507 80 57 3.0 6.0 0.00 0.00 0.00 62 1013.6
20260831080009 80 250 0.0 2.0 0.00 0.00 0.00 64 1013.6
20260831074559 80 148 1.0 3.0 0.00 0.00 0.00 63 1013.6
20260831073055 81 81 0.0 2.0 0.00 0.00 0.00 63 1013.5
20260831071550 79 105 1.0 2.0 0.00 0.00 0.00 65 1013.5
20260831070049 77 347 1.0 4.0 0.00 0.00 0.00 68 1013.4
20260831064542 75 351 2.0 5.0 0.00 0.00 0.00 70 1013.5
20260831063038 74 42 3.0 5.0 0.00 0.00 0.00 71 1013.5
20260831061532 73 19 3.0 5.0 0.00 0.00 0.00 74 1013.6
20260831060027 72 53 2.0 3.0 0.00 0.00 0.00 77 1013.6
20260831054523 71 40 2.0 4.0 0.00 0.00 0.00 79 1013.5
20260831053020 70 38 2.0 4.0 0.00 0.00 0.00 81 1013.4
20260831051516 70 32 2.0 5.0 0.00 0.00 0.00 81 1013.3
20260831050014 70 40 2.0 5.0 0.00 0.00 0.00 80 1013.1
20260831044518 70 348 4.0 5.0 0.00 0.00 0.00 79 1013.1
20260831043010 70 37 3.0 5.0 0.00 0.00 0.00 78 1013.1
20260831041507 71 350 3.0 4.0 0.00 0.00 0.00 78 1013.2
20260831040006 71 28 1.0 2.0 0.00 0.00 0.00 78 1013.1
20260831034506 71 28 1.0 3.0 0.00 0.00 0.00 78 1013.1
20260831033006 71 24 1.0 3.0 0.00 0.00 0.00 78 1013.2
20260831031507 72 340 0.0 1.0 0.00 0.00 0.00 77 1013.3
20260831030004 72 340 0.0 3.0 0.00 0.00 0.00 77 1013.5
20260831024504 71 340 2.0 5.0 0.00 0.00 0.00 78 1013.5